Year,Month,Day,Hour,Minute,Value (Times are PST for windgust in km/hr)
2012,03,13,00,00,1.60
2012,03,13,00,01,9.60
2012,03,13,00,02,1.60
2012,03,13,00,03,1.60
2012,03,13,00,04,8.10
2012,03,13,00,05,8.10
2012,03,13,00,06,1.60
2012,03,13,00,07,4.80
2012,03,13,00,08,1.60
2012,03,13,00,09,1.60
2012,03,13,00,10,1.60
2012,03,13,00,11,3.20
2012,03,13,00,12,3.20
2012,03,13,00,13,1.60
2012,03,13,00,14,3.20
2012,03,13,00,16,9.60
2012,03,13,00,17,8.10
2012,03,13,00,18,8.10
2012,03,13,00,19,1.60
2012,03,13,00,20,16.10
2012,03,13,00,21,19.30
2012,03,13,00,22,6.40
2012,03,13,00,23,6.40
2012,03,13,00,24,3.20
2012,03,13,00,25,9.60
2012,03,13,00,26,11.30
2012,03,13,00,27,9.60
2012,03,13,00,28,6.40
2012,03,13,00,29,8.10
2012,03,13,00,30,9.60
2012,03,13,00,31,14.50
2012,03,13,00,32,19.30
2012,03,13,00,33,6.40
2012,03,13,00,34,8.10
2012,03,13,00,35,8.10
2012,03,13,00,36,4.80
2012,03,13,00,37,9.60
2012,03,13,00,38,16.10
2012,03,13,00,39,8.10
2012,03,13,00,40,9.60
2012,03,13,00,41,19.30
2012,03,13,00,42,9.60
2012,03,13,00,43,9.60
2012,03,13,00,44,8.10
2012,03,13,00,45,22.50
2012,03,13,00,46,17.70
2012,03,13,00,47,8.10
2012,03,13,00,48,1.60
2012,03,13,00,49,11.30
2012,03,13,00,50,16.10
2012,03,13,00,51,20.90
2012,03,13,00,52,17.70
2012,03,13,00,53,8.10
2012,03,13,00,54,17.70
2012,03,13,00,55,16.10
2012,03,13,00,56,1.60
2012,03,13,00,58,1.60
2012,03,13,01,01,6.40
2012,03,13,01,02,4.80
2012,03,13,01,03,3.20
2012,03,13,01,04,1.60
2012,03,13,01,05,16.10
2012,03,13,01,08,8.10
2012,03,13,01,09,4.80
2012,03,13,01,10,4.80
2012,03,13,01,11,9.60
2012,03,13,01,12,4.80
2012,03,13,01,13,1.60
2012,03,13,01,14,6.40
2012,03,13,01,15,4.80
2012,03,13,01,16,8.10
2012,03,13,01,17,16.10
2012,03,13,01,18,12.90
2012,03,13,01,19,14.50
2012,03,13,01,20,4.80
2012,03,13,01,21,6.40
2012,03,13,01,22,8.10
2012,03,13,01,23,9.60
2012,03,13,01,24,4.80
2012,03,13,01,25,12.90
2012,03,13,01,26,11.30
2012,03,13,01,27,3.20
2012,03,13,01,28,1.60
2012,03,13,01,29,9.60
2012,03,13,01,30,16.10
2012,03,13,01,31,12.90
2012,03,13,01,32,8.10
2012,03,13,01,33,1.60
2012,03,13,01,34,16.10
2012,03,13,01,35,8.10
2012,03,13,01,36,12.90
2012,03,13,01,37,11.30
2012,03,13,01,38,4.80
2012,03,13,01,39,9.60
2012,03,13,01,40,9.60
2012,03,13,01,41,4.80
2012,03,13,01,42,11.30
2012,03,13,01,43,6.40
2012,03,13,01,44,6.40
2012,03,13,01,45,14.50
2012,03,13,01,46,16.10
2012,03,13,01,47,14.50
2012,03,13,01,48,8.10
2012,03,13,01,49,11.30
2012,03,13,01,50,11.30
2012,03,13,01,51,6.40
2012,03,13,01,52,6.40
2012,03,13,01,53,6.40
2012,03,13,01,54,11.30
2012,03,13,01,55,3.20
2012,03,13,01,56,8.10
2012,03,13,01,57,3.20
2012,03,13,01,58,3.20
2012,03,13,01,59,1.60
2012,03,13,02,00,11.30
2012,03,13,02,01,9.60
2012,03,13,02,02,3.20
2012,03,13,02,03,3.20
2012,03,13,02,04,6.40
2012,03,13,02,05,6.40
2012,03,13,02,06,6.40
2012,03,13,02,07,9.60
2012,03,13,02,08,3.20
2012,03,13,02,09,9.60
2012,03,13,02,10,6.40
2012,03,13,02,11,8.10
2012,03,13,02,12,9.60
2012,03,13,02,13,1.60
2012,03,13,02,14,8.10
2012,03,13,02,15,4.80
2012,03,13,02,16,8.10
2012,03,13,02,17,14.50
2012,03,13,02,18,9.60
2012,03,13,02,19,17.70
2012,03,13,02,20,24.20
2012,03,13,02,21,4.80
2012,03,13,02,22,8.10
2012,03,13,02,23,16.10
2012,03,13,02,24,8.10
2012,03,13,02,25,4.80
2012,03,13,02,26,9.60
2012,03,13,02,27,14.50
2012,03,13,02,28,14.50
2012,03,13,02,29,19.30
2012,03,13,02,30,11.30
2012,03,13,02,31,16.10
2012,03,13,02,32,8.10
2012,03,13,02,33,4.80
2012,03,13,02,34,3.20
2012,03,13,02,35,11.30
2012,03,13,02,36,12.90
2012,03,13,02,37,9.60
2012,03,13,02,38,9.60
2012,03,13,02,39,11.30
2012,03,13,02,40,9.60
2012,03,13,02,41,4.80
2012,03,13,02,42,8.10
2012,03,13,02,43,16.10
2012,03,13,02,44,17.70
2012,03,13,02,45,8.10
2012,03,13,02,46,9.60
2012,03,13,02,47,9.60
2012,03,13,02,48,6.40
2012,03,13,02,49,11.30
2012,03,13,02,50,4.80
2012,03,13,02,51,1.60
2012,03,13,02,53,6.40
2012,03,13,02,54,6.40
2012,03,13,02,55,4.80
2012,03,13,02,56,6.40
2012,03,13,02,57,4.80
2012,03,13,02,58,9.60
2012,03,13,02,59,20.90
2012,03,13,03,00,17.70
2012,03,13,03,01,17.70
2012,03,13,03,02,19.30
2012,03,13,03,03,11.30
2012,03,13,03,04,22.50
2012,03,13,03,05,22.50
2012,03,13,03,06,17.70
2012,03,13,03,07,9.60
2012,03,13,03,08,16.10
2012,03,13,03,09,19.30
2012,03,13,03,10,19.30
2012,03,13,03,11,16.10
2012,03,13,03,12,17.70
2012,03,13,03,13,14.50
2012,03,13,03,14,14.50
2012,03,13,03,15,19.30
2012,03,13,03,16,16.10
2012,03,13,03,17,17.70
2012,03,13,03,18,25.70
2012,03,13,03,19,17.70
2012,03,13,03,20,19.30
2012,03,13,03,21,17.70
2012,03,13,03,22,9.60
2012,03,13,03,23,8.10
2012,03,13,03,24,4.80
2012,03,13,03,25,9.60
2012,03,13,03,26,11.30
2012,03,13,03,27,8.10
2012,03,13,03,28,8.10
2012,03,13,03,29,14.50
2012,03,13,03,30,4.80
2012,03,13,03,31,4.80
2012,03,13,03,32,4.80
2012,03,13,03,33,4.80
2012,03,13,03,34,1.60
2012,03,13,03,35,9.60
2012,03,13,03,37,16.10
2012,03,13,03,38,8.10
2012,03,13,03,39,16.10
2012,03,13,03,40,6.40
2012,03,13,03,41,24.20
2012,03,13,03,42,9.60
2012,03,13,03,43,16.10
2012,03,13,03,44,22.50
2012,03,13,03,45,16.10
2012,03,13,03,46,16.10
2012,03,13,03,47,27.40
2012,03,13,03,48,14.50
2012,03,13,03,49,11.30
2012,03,13,03,50,11.30
2012,03,13,03,51,22.50
2012,03,13,03,52,11.30
2012,03,13,03,53,6.40
2012,03,13,03,54,12.90
2012,03,13,03,55,9.60
2012,03,13,03,56,11.30
2012,03,13,03,57,17.70
2012,03,13,03,58,8.10
2012,03,13,03,59,11.30
2012,03,13,04,00,12.90
2012,03,13,04,01,11.30
2012,03,13,04,02,14.50
2012,03,13,04,04,6.40
2012,03,13,04,05,8.10
2012,03,13,04,06,6.40
2012,03,13,04,07,16.10
2012,03,13,04,08,8.10
2012,03,13,04,09,6.40
2012,03,13,04,10,6.40
2012,03,13,04,11,4.80
2012,03,13,04,12,3.20
2012,03,13,04,13,4.80
2012,03,13,04,14,3.20
2012,03,13,04,15,1.60
2012,03,13,04,16,6.40
2012,03,13,04,17,11.30
2012,03,13,04,18,3.20
2012,03,13,04,19,3.20
2012,03,13,04,20,4.80
2012,03,13,04,22,3.20
2012,03,13,04,23,1.60
2012,03,13,04,27,3.20
2012,03,13,04,28,1.60
2012,03,13,04,29,8.10
2012,03,13,04,30,8.10
2012,03,13,04,31,6.40
2012,03,13,04,32,6.40
2012,03,13,04,33,1.60
2012,03,13,04,34,1.60
2012,03,13,04,35,1.60
2012,03,13,04,36,6.40
2012,03,13,04,37,1.60
2012,03,13,04,39,3.20
2012,03,13,04,40,1.60
2012,03,13,04,42,4.80
2012,03,13,04,43,6.40
2012,03,13,04,44,4.80
2012,03,13,04,45,4.80
2012,03,13,04,46,3.20
2012,03,13,04,47,3.20
2012,03,13,04,48,1.60
2012,03,13,04,49,1.60
2012,03,13,04,50,1.60
2012,03,13,04,51,1.60
2012,03,13,04,53,1.60
2012,03,13,04,54,3.20
2012,03,13,04,55,4.80
2012,03,13,04,56,1.60
2012,03,13,04,57,1.60
2012,03,13,04,58,6.40
2012,03,13,04,59,8.10
2012,03,13,05,00,8.10
2012,03,13,05,01,4.80
2012,03,13,05,03,6.40
2012,03,13,05,07,1.60
2012,03,13,05,10,4.80
2012,03,13,05,11,6.40
2012,03,13,05,12,3.20
2012,03,13,05,14,1.60
2012,03,13,05,15,3.20
2012,03,13,05,16,1.60
2012,03,13,05,17,4.80
2012,03,13,05,18,3.20
2012,03,13,05,19,3.20
2012,03,13,05,21,1.60
2012,03,13,05,22,3.20
2012,03,13,05,23,8.10
2012,03,13,05,24,3.20
2012,03,13,05,25,1.60
2012,03,13,05,26,1.60
2012,03,13,05,27,3.20
2012,03,13,05,28,1.60
2012,03,13,05,29,1.60
2012,03,13,05,30,1.60
2012,03,13,05,31,3.20
2012,03,13,05,32,1.60
2012,03,13,05,33,1.60
2012,03,13,05,34,4.80
2012,03,13,05,35,6.40
2012,03,13,05,36,3.20
2012,03,13,05,37,1.60
2012,03,13,05,39,1.60
2012,03,13,05,40,6.40
2012,03,13,05,41,4.80
2012,03,13,05,42,1.60
2012,03,13,05,43,3.20
2012,03,13,05,44,3.20
2012,03,13,05,45,4.80
2012,03,13,05,46,1.60
2012,03,13,05,47,1.60
2012,03,13,05,48,1.60
2012,03,13,05,49,1.60
2012,03,13,05,50,1.60
2012,03,13,05,51,1.60
2012,03,13,06,03,1.60
2012,03,13,06,08,1.60
2012,03,13,06,09,1.60
2012,03,13,06,10,3.20
2012,03,13,06,11,1.60
2012,03,13,06,19,1.60
2012,03,13,06,20,1.60
2012,03,13,06,21,3.20
2012,03,13,06,22,1.60
2012,03,13,06,23,1.60
2012,03,13,06,24,1.60
2012,03,13,06,25,1.60
2012,03,13,06,26,1.60
2012,03,13,06,27,4.80
2012,03,13,06,28,1.60
2012,03,13,06,29,1.60
2012,03,13,06,30,1.60
2012,03,13,06,31,1.60
2012,03,13,06,32,1.60
2012,03,13,06,35,1.60
2012,03,13,06,37,1.60
2012,03,13,06,38,1.60
2012,03,13,06,39,3.20
2012,03,13,06,40,1.60
2012,03,13,06,42,1.60
2012,03,13,06,43,1.60
2012,03,13,06,48,1.60
2012,03,13,06,51,1.60
2012,03,13,06,52,3.20
2012,03,13,06,53,1.60
2012,03,13,06,54,1.60
2012,03,13,06,56,1.60
2012,03,13,06,57,1.60
2012,03,13,06,59,1.60
2012,03,13,07,01,1.60
2012,03,13,07,08,1.60
2012,03,13,07,09,1.60
2012,03,13,07,10,3.20
2012,03,13,07,14,1.60
2012,03,13,07,15,1.60
2012,03,13,07,17,4.80
2012,03,13,07,18,1.60
2012,03,13,07,20,1.60
2012,03,13,07,21,1.60
2012,03,13,07,26,1.60
2012,03,13,07,27,1.60
2012,03,13,07,28,1.60
2012,03,13,07,29,8.10
2012,03,13,07,30,4.80
2012,03,13,07,31,3.20
2012,03,13,07,32,4.80
2012,03,13,07,33,3.20
2012,03,13,07,34,1.60
2012,03,13,07,35,1.60
2012,03,13,07,36,6.40
2012,03,13,07,37,1.60
2012,03,13,07,38,6.40
2012,03,13,07,39,4.80
2012,03,13,07,40,4.80
2012,03,13,07,41,3.20
2012,03,13,07,42,3.20
2012,03,13,07,43,4.80
2012,03,13,07,44,4.80
2012,03,13,07,45,1.60
2012,03,13,07,46,4.80
2012,03,13,07,47,4.80
2012,03,13,07,48,6.40
2012,03,13,07,49,14.50
2012,03,13,07,50,11.30
2012,03,13,07,51,6.40
2012,03,13,07,52,8.10
2012,03,13,07,53,6.40
2012,03,13,07,54,8.10
2012,03,13,07,55,6.40
2012,03,13,07,56,4.80
2012,03,13,07,57,6.40
2012,03,13,07,58,6.40
2012,03,13,07,59,6.40
2012,03,13,08,00,6.40
2012,03,13,08,01,4.80
2012,03,13,08,02,3.20
2012,03,13,08,03,4.80
2012,03,13,08,04,8.10
2012,03,13,08,05,4.80
2012,03,13,08,06,8.10
2012,03,13,08,07,4.80
2012,03,13,08,08,6.40
2012,03,13,08,09,6.40
2012,03,13,08,10,9.60
2012,03,13,08,11,9.60
2012,03,13,08,12,16.10
2012,03,13,08,13,12.90
2012,03,13,08,14,11.30
2012,03,13,08,15,14.50
2012,03,13,08,16,11.30
2012,03,13,08,17,12.90
2012,03,13,08,18,9.60
2012,03,13,08,19,8.10
2012,03,13,08,20,3.20
2012,03,13,08,21,1.60
2012,03,13,08,22,4.80
2012,03,13,08,23,6.40
2012,03,13,08,24,6.40
2012,03,13,08,25,6.40
2012,03,13,08,26,8.10
2012,03,13,08,27,8.10
2012,03,13,08,28,9.60
2012,03,13,08,29,9.60
2012,03,13,08,30,16.10
2012,03,13,08,31,9.60
2012,03,13,08,32,11.30
2012,03,13,08,33,8.10
2012,03,13,08,34,8.10
2012,03,13,08,35,1.60
2012,03,13,08,36,8.10
2012,03,13,08,37,3.20
2012,03,13,08,38,3.20
2012,03,13,08,39,9.60
2012,03,13,08,40,8.10
2012,03,13,08,41,8.10
2012,03,13,08,42,4.80
2012,03,13,08,43,8.10
2012,03,13,08,44,6.40
2012,03,13,08,45,4.80
2012,03,13,08,46,6.40
2012,03,13,08,47,6.40
2012,03,13,08,48,6.40
2012,03,13,08,49,1.60
2012,03,13,08,50,4.80
2012,03,13,08,51,6.40
2012,03,13,08,52,1.60
2012,03,13,08,54,4.80
2012,03,13,08,55,4.80
2012,03,13,08,56,6.40
2012,03,13,08,57,6.40
2012,03,13,08,58,9.60
2012,03,13,08,59,8.10
2012,03,13,09,00,9.60
2012,03,13,09,01,6.40
2012,03,13,09,02,4.80
2012,03,13,09,03,3.20
2012,03,13,09,04,6.40
2012,03,13,09,05,11.30
2012,03,13,09,06,6.40
2012,03,13,09,07,9.60
2012,03,13,09,08,8.10
2012,03,13,09,09,9.60
2012,03,13,09,10,6.40
2012,03,13,09,11,3.20
2012,03,13,09,12,6.40
2012,03,13,09,13,1.60
2012,03,13,09,14,3.20
2012,03,13,09,15,6.40
2012,03,13,09,16,9.60
2012,03,13,09,17,3.20
2012,03,13,09,18,1.60
2012,03,13,09,19,6.40
2012,03,13,09,20,6.40
2012,03,13,09,21,4.80
2012,03,13,09,22,4.80
2012,03,13,09,23,4.80
2012,03,13,09,24,4.80
2012,03,13,09,25,8.10
2012,03,13,09,26,4.80
2012,03,13,09,27,1.60
2012,03,13,09,28,3.20
2012,03,13,09,29,6.40
2012,03,13,09,30,8.10
2012,03,13,09,31,8.10
2012,03,13,09,32,4.80
2012,03,13,09,33,3.20
2012,03,13,09,34,4.80
2012,03,13,09,35,8.10
2012,03,13,09,36,3.20
2012,03,13,09,37,3.20
2012,03,13,09,38,4.80
2012,03,13,09,39,9.60
2012,03,13,09,40,6.40
2012,03,13,09,41,9.60
2012,03,13,09,42,8.10
2012,03,13,09,43,6.40
2012,03,13,09,44,9.60
2012,03,13,09,45,9.60
2012,03,13,09,46,6.40
2012,03,13,09,47,8.10
2012,03,13,09,48,1.60
2012,03,13,09,49,3.20
2012,03,13,09,50,3.20
2012,03,13,09,51,1.60
2012,03,13,09,52,4.80
2012,03,13,09,53,3.20
2012,03,13,09,54,3.20
2012,03,13,09,55,1.60
2012,03,13,09,56,1.60
2012,03,13,09,57,1.60
2012,03,13,09,58,4.80
2012,03,13,10,00,1.60
2012,03,13,10,01,1.60
2012,03,13,10,04,1.60
2012,03,13,10,05,1.60
2012,03,13,10,06,1.60
2012,03,13,10,07,1.60
2012,03,13,10,10,1.60
2012,03,13,10,11,1.60
2012,03,13,10,12,1.60
2012,03,13,10,16,3.20
2012,03,13,10,17,6.40
2012,03,13,10,20,1.60
2012,03,13,10,22,1.60
2012,03,13,10,23,1.60
2012,03,13,10,24,1.60
2012,03,13,10,27,1.60
2012,03,13,10,28,1.60
2012,03,13,10,29,1.60
2012,03,13,10,30,4.80
2012,03,13,10,31,6.40
2012,03,13,10,32,16.10
2012,03,13,10,33,11.30
2012,03,13,10,34,6.40
2012,03,13,10,35,8.10
2012,03,13,10,36,4.80
2012,03,13,10,37,4.80
2012,03,13,10,38,1.60
2012,03,13,10,39,1.60
2012,03,13,10,40,6.40
2012,03,13,10,41,1.60
2012,03,13,10,42,3.20
2012,03,13,10,43,1.60
2012,03,13,10,44,6.40
2012,03,13,10,45,9.60
2012,03,13,10,46,9.60
2012,03,13,10,47,8.10
2012,03,13,10,48,9.60
2012,03,13,10,49,6.40
2012,03,13,10,50,6.40
2012,03,13,10,51,3.20
2012,03,13,10,52,4.80
2012,03,13,10,53,4.80
2012,03,13,10,55,8.10
2012,03,13,10,56,6.40
2012,03,13,10,57,3.20
2012,03,13,10,58,4.80
2012,03,13,10,59,8.10
2012,03,13,11,00,1.60
2012,03,13,11,01,1.60
2012,03,13,11,02,3.20
2012,03,13,11,03,6.40
2012,03,13,11,04,6.40
2012,03,13,11,05,6.40
2012,03,13,11,06,6.40
2012,03,13,11,07,4.80
2012,03,13,11,08,9.60
2012,03,13,11,09,8.10
2012,03,13,11,10,4.80
2012,03,13,11,11,4.80
2012,03,13,11,12,9.60
2012,03,13,11,13,8.10
2012,03,13,11,14,8.10
2012,03,13,11,15,6.40
2012,03,13,11,16,14.50
2012,03,13,11,17,3.20
2012,03,13,11,18,8.10
2012,03,13,11,19,4.80
2012,03,13,11,20,4.80
2012,03,13,11,21,8.10
2012,03,13,11,22,9.60
2012,03,13,11,23,6.40
2012,03,13,11,24,8.10
2012,03,13,11,25,8.10
2012,03,13,11,26,9.60
2012,03,13,11,27,8.10
2012,03,13,11,28,4.80
2012,03,13,11,29,6.40
2012,03,13,11,30,6.40
2012,03,13,11,31,6.40
2012,03,13,11,32,8.10
2012,03,13,11,33,6.40
2012,03,13,11,34,1.60
2012,03,13,11,35,1.60
2012,03,13,11,36,9.60
2012,03,13,11,37,9.60
2012,03,13,11,38,9.60
2012,03,13,11,39,9.60
2012,03,13,11,40,8.10
2012,03,13,11,41,1.60
2012,03,13,11,43,8.10
2012,03,13,11,44,9.60
2012,03,13,11,45,9.60
2012,03,13,11,46,4.80
2012,03,13,11,47,8.10
2012,03,13,11,48,6.40
2012,03,13,11,49,9.60
2012,03,13,11,50,6.40
2012,03,13,11,51,4.80
2012,03,13,11,52,4.80
2012,03,13,11,53,4.80
2012,03,13,11,54,4.80
2012,03,13,11,55,9.60
2012,03,13,11,56,9.60
2012,03,13,11,57,11.30
2012,03,13,11,58,9.60
2012,03,13,11,59,8.10
2012,03,13,12,00,4.80
2012,03,13,12,01,6.40
2012,03,13,12,02,6.40
2012,03,13,12,03,6.40
2012,03,13,12,04,3.20
2012,03,13,12,05,8.10
2012,03,13,12,06,8.10
2012,03,13,12,07,11.30
2012,03,13,12,08,8.10
2012,03,13,12,09,8.10
2012,03,13,12,10,8.10
2012,03,13,12,11,3.20
2012,03,13,12,12,4.80
2012,03,13,12,13,6.40
2012,03,13,12,14,11.30
2012,03,13,12,15,16.10
2012,03,13,12,16,12.90
2012,03,13,12,17,4.80
2012,03,13,12,18,4.80
2012,03,13,12,19,4.80
2012,03,13,12,20,8.10
2012,03,13,12,21,3.20
2012,03,13,12,22,8.10
2012,03,13,12,23,11.30
2012,03,13,12,24,14.50
2012,03,13,12,25,14.50
2012,03,13,12,26,11.30
2012,03,13,12,27,9.60
2012,03,13,12,28,9.60
2012,03,13,12,29,9.60
2012,03,13,12,30,16.10
2012,03,13,12,31,9.60
2012,03,13,12,32,11.30
2012,03,13,12,33,8.10
2012,03,13,12,34,6.40
2012,03,13,12,35,4.80
2012,03,13,12,36,8.10
2012,03,13,12,37,11.30
2012,03,13,12,38,11.30
2012,03,13,12,39,9.60
2012,03,13,12,40,6.40
2012,03,13,12,41,4.80
2012,03,13,12,42,16.10
2012,03,13,12,43,11.30
2012,03,13,12,44,8.10
2012,03,13,12,45,9.60
2012,03,13,12,46,8.10
2012,03,13,12,47,9.60
2012,03,13,12,48,11.30
2012,03,13,12,49,9.60
2012,03,13,12,50,11.30
2012,03,13,12,51,11.30
2012,03,13,12,52,4.80
2012,03,13,12,53,9.60
2012,03,13,12,54,9.60
2012,03,13,12,55,17.70
2012,03,13,12,56,11.30
2012,03,13,12,57,19.30
2012,03,13,12,58,16.10
2012,03,13,12,59,11.30
2012,03,13,13,00,14.50
2012,03,13,13,01,11.30
2012,03,13,13,02,14.50
2012,03,13,13,03,11.30
2012,03,13,13,04,14.50
2012,03,13,13,05,14.50
2012,03,13,13,06,16.10
2012,03,13,13,07,16.10
2012,03,13,13,08,8.10
2012,03,13,13,09,17.70
2012,03,13,13,10,14.50
2012,03,13,13,11,14.50
2012,03,13,13,12,12.90
2012,03,13,13,13,9.60
2012,03,13,13,14,9.60
2012,03,13,13,15,9.60
2012,03,13,13,16,9.60
2012,03,13,13,17,11.30
2012,03,13,13,18,8.10
2012,03,13,13,19,16.10
2012,03,13,13,20,11.30
2012,03,13,13,21,17.70
2012,03,13,13,22,16.10
2012,03,13,13,23,16.10
2012,03,13,13,24,19.30
2012,03,13,13,25,17.70
2012,03,13,13,26,14.50
2012,03,13,13,27,12.90
2012,03,13,13,28,8.10
2012,03,13,13,29,14.50
2012,03,13,13,30,12.90
2012,03,13,13,31,20.90
2012,03,13,13,32,16.10
2012,03,13,13,33,9.60
2012,03,13,13,34,14.50
2012,03,13,13,35,16.10
2012,03,13,13,36,16.10
2012,03,13,13,37,11.30
2012,03,13,13,38,14.50
2012,03,13,13,39,9.60
2012,03,13,13,40,4.80
2012,03,13,13,41,6.40
2012,03,13,13,42,8.10
2012,03,13,13,43,11.30
2012,03,13,13,44,14.50
2012,03,13,13,45,14.50
2012,03,13,13,46,16.10
2012,03,13,13,47,14.50
2012,03,13,13,48,16.10
2012,03,13,13,49,11.30
2012,03,13,13,50,14.50
2012,03,13,13,51,12.90
2012,03,13,13,52,3.20
2012,03,13,13,53,3.20
2012,03,13,13,54,4.80
2012,03,13,13,55,9.60
2012,03,13,13,56,6.40
2012,03,13,13,57,6.40
2012,03,13,13,58,16.10
2012,03,13,13,59,16.10
2012,03,13,14,00,4.80
2012,03,13,14,01,11.30
2012,03,13,14,02,11.30
2012,03,13,14,03,11.30
2012,03,13,14,04,14.50
2012,03,13,14,05,19.30
2012,03,13,14,06,14.50
2012,03,13,14,07,11.30
2012,03,13,14,08,17.70
2012,03,13,14,09,14.50
2012,03,13,14,10,11.30
2012,03,13,14,11,9.60
2012,03,13,14,12,14.50
2012,03,13,14,13,9.60
2012,03,13,14,14,9.60
2012,03,13,14,15,12.90
2012,03,13,14,16,9.60
2012,03,13,14,17,17.70
2012,03,13,14,18,19.30
2012,03,13,14,19,22.50
2012,03,13,14,20,24.20
2012,03,13,14,21,9.60
2012,03,13,14,22,17.70
2012,03,13,14,23,20.90
2012,03,13,14,24,16.10
2012,03,13,14,25,20.90
2012,03,13,14,26,19.30
2012,03,13,14,27,11.30
2012,03,13,14,28,20.90
2012,03,13,14,29,17.70
2012,03,13,14,30,9.60
2012,03,13,14,31,8.10
2012,03,13,14,32,14.50
2012,03,13,14,33,17.70
2012,03,13,14,34,6.40
2012,03,13,14,35,16.10
2012,03,13,14,36,17.70
2012,03,13,14,37,6.40
2012,03,13,14,38,3.20
2012,03,13,14,39,16.10
2012,03,13,14,40,17.70
2012,03,13,14,41,17.70
2012,03,13,14,42,14.50
2012,03,13,14,43,14.50
2012,03,13,14,44,9.60
2012,03,13,14,45,16.10
2012,03,13,14,46,20.90
2012,03,13,14,47,14.50
2012,03,13,14,48,11.30
2012,03,13,14,49,6.40
2012,03,13,14,50,6.40
2012,03,13,14,51,14.50
2012,03,13,14,52,19.30
2012,03,13,14,53,4.80
2012,03,13,14,54,3.20
2012,03,13,14,55,16.10
2012,03,13,14,56,4.80
2012,03,13,14,57,8.10
2012,03,13,14,58,20.90
2012,03,13,14,59,8.10
2012,03,13,15,00,9.60
2012,03,13,15,01,4.80
2012,03,13,15,02,8.10
2012,03,13,15,03,27.40
2012,03,13,15,04,9.60
2012,03,13,15,05,11.30
2012,03,13,15,06,8.10
2012,03,13,15,07,17.70
2012,03,13,15,08,11.30
2012,03,13,15,09,8.10
2012,03,13,15,10,19.30
2012,03,13,15,11,24.20
2012,03,13,15,12,9.60
2012,03,13,15,13,19.30
2012,03,13,15,14,24.20
2012,03,13,15,15,24.20
2012,03,13,15,16,14.50
2012,03,13,15,17,30.60
2012,03,13,15,18,24.20
2012,03,13,15,19,14.50
2012,03,13,15,20,14.50
2012,03,13,15,21,19.30
2012,03,13,15,22,17.70
2012,03,13,15,23,12.90
2012,03,13,15,24,14.50
2012,03,13,15,25,11.30
2012,03,13,15,26,19.30
2012,03,13,15,27,20.90
2012,03,13,15,28,3.20
2012,03,13,15,29,8.10
2012,03,13,15,30,9.60
2012,03,13,15,31,8.10
2012,03,13,15,32,11.30
2012,03,13,15,33,19.30
2012,03,13,15,34,3.20
2012,03,13,15,35,6.40
2012,03,13,15,36,17.70
2012,03,13,15,37,22.50
2012,03,13,15,38,16.10
2012,03,13,15,39,6.40
2012,03,13,15,40,4.80
2012,03,13,15,41,14.50
2012,03,13,15,42,19.30
2012,03,13,15,43,17.70
2012,03,13,15,44,11.30
2012,03,13,15,45,6.40
2012,03,13,15,46,9.60
2012,03,13,15,47,4.80
2012,03,13,15,48,14.50
2012,03,13,15,49,16.10
2012,03,13,15,50,9.60
2012,03,13,15,51,6.40
2012,03,13,15,52,8.10
2012,03,13,15,53,16.10
2012,03,13,15,54,9.60
2012,03,13,15,55,11.30
2012,03,13,15,56,24.20
2012,03,13,15,57,11.30
2012,03,13,15,58,17.70
2012,03,13,15,59,16.10
2012,03,13,16,00,14.50
2012,03,13,16,01,16.10
2012,03,13,16,02,16.10
2012,03,13,16,03,9.60
2012,03,13,16,04,14.50
2012,03,13,16,05,20.90
2012,03,13,16,06,11.30
2012,03,13,16,07,6.40
2012,03,13,16,08,19.30
2012,03,13,16,09,20.90
2012,03,13,16,10,11.30
2012,03,13,16,11,11.30
2012,03,13,16,12,6.40
2012,03,13,16,13,17.70
2012,03,13,16,14,17.70
2012,03,13,16,15,17.70
2012,03,13,16,16,20.90
2012,03,13,16,17,30.60
2012,03,13,16,18,25.70
2012,03,13,16,19,30.60
2012,03,13,16,20,20.90
2012,03,13,16,21,11.30
2012,03,13,16,22,22.50
2012,03,13,16,23,16.10
2012,03,13,16,24,22.50
2012,03,13,16,25,29.00
2012,03,13,16,26,25.70
2012,03,13,16,27,19.30
2012,03,13,16,28,20.90
2012,03,13,16,29,16.10
2012,03,13,16,30,24.20
2012,03,13,16,31,30.60
2012,03,13,16,32,20.90
2012,03,13,16,33,27.40
2012,03,13,16,34,30.60
2012,03,13,16,35,29.00
2012,03,13,16,36,32.20
2012,03,13,16,37,17.70
2012,03,13,16,38,17.70
2012,03,13,16,39,20.90
2012,03,13,16,40,19.30
2012,03,13,16,41,27.40
2012,03,13,16,42,24.20
2012,03,13,16,43,24.20
2012,03,13,16,44,27.40
2012,03,13,16,45,35.40
2012,03,13,16,46,24.20
2012,03,13,16,47,25.70
2012,03,13,16,48,24.20
2012,03,13,16,49,32.20
2012,03,13,16,50,20.90
2012,03,13,16,51,16.10
2012,03,13,16,52,17.70
2012,03,13,16,53,19.30
2012,03,13,16,54,16.10
2012,03,13,16,55,16.10
2012,03,13,16,56,14.50
2012,03,13,16,57,9.60
2012,03,13,16,58,14.50
2012,03,13,16,59,19.30
2012,03,13,17,00,17.70
2012,03,13,17,01,22.50
2012,03,13,17,02,14.50
2012,03,13,17,03,8.10
2012,03,13,17,04,6.40
2012,03,13,17,05,24.20
2012,03,13,17,06,3.20
2012,03,13,17,07,19.30
2012,03,13,17,08,24.20
2012,03,13,17,09,16.10
2012,03,13,17,10,20.90
2012,03,13,17,11,20.90
2012,03,13,17,12,19.30
2012,03,13,17,13,12.90
2012,03,13,17,14,25.70
2012,03,13,17,15,19.30
2012,03,13,17,16,19.30
2012,03,13,17,17,9.60
2012,03,13,17,18,16.10
2012,03,13,17,19,25.70
2012,03,13,17,20,27.40
2012,03,13,17,21,27.40
2012,03,13,17,22,24.20
2012,03,13,17,23,11.30
2012,03,13,17,24,16.10
2012,03,13,17,25,30.60
2012,03,13,17,26,24.20
2012,03,13,17,27,22.50
2012,03,13,17,28,20.90
2012,03,13,17,29,19.30
2012,03,13,17,30,11.30
2012,03,13,17,31,8.10
2012,03,13,17,32,8.10
2012,03,13,17,33,19.30
2012,03,13,17,34,14.50
2012,03,13,17,35,24.20
2012,03,13,17,36,24.20
2012,03,13,17,37,20.90
2012,03,13,17,38,19.30
2012,03,13,17,39,16.10
2012,03,13,17,40,4.80
2012,03,13,17,41,11.30
2012,03,13,17,42,16.10
2012,03,13,17,43,20.90
2012,03,13,17,44,14.50
2012,03,13,17,45,11.30
2012,03,13,17,46,19.30
2012,03,13,17,47,14.50
2012,03,13,17,48,20.90
2012,03,13,17,49,16.10
2012,03,13,17,50,11.30
2012,03,13,17,51,25.70
2012,03,13,17,52,6.40
2012,03,13,17,53,1.60
2012,03,13,17,54,25.70
2012,03,13,17,55,9.60
2012,03,13,17,56,8.10
2012,03,13,17,57,4.80
2012,03,13,17,58,16.10
2012,03,13,17,59,19.30
2012,03,13,18,00,17.70
2012,03,13,18,01,8.10
2012,03,13,18,02,20.90
2012,03,13,18,03,8.10
2012,03,13,18,04,20.90
2012,03,13,18,05,16.10
2012,03,13,18,06,3.20
2012,03,13,18,07,8.10
2012,03,13,18,08,16.10
2012,03,13,18,09,6.40
2012,03,13,18,10,9.60
2012,03,13,18,11,6.40
2012,03,13,18,12,4.80
2012,03,13,18,13,8.10
2012,03,13,18,14,11.30
2012,03,13,18,15,9.60
2012,03,13,18,16,6.40
2012,03,13,18,17,19.30
2012,03,13,18,18,14.50
2012,03,13,18,19,3.20
2012,03,13,18,20,1.60
2012,03,13,18,21,11.30
2012,03,13,18,22,3.20
2012,03,13,18,23,6.40
2012,03,13,18,24,9.60
2012,03,13,18,25,9.60
2012,03,13,18,26,11.30
2012,03,13,18,27,4.80
2012,03,13,18,28,6.40
2012,03,13,18,29,14.50
2012,03,13,18,30,3.20
2012,03,13,18,31,6.40
2012,03,13,18,32,6.40
2012,03,13,18,33,6.40
2012,03,13,18,34,6.40
2012,03,13,18,35,6.40
2012,03,13,18,36,1.60
2012,03,13,18,37,9.60
2012,03,13,18,38,9.60
2012,03,13,18,39,8.10
2012,03,13,18,40,8.10
2012,03,13,18,41,9.60
2012,03,13,18,42,19.30
2012,03,13,18,43,9.60
2012,03,13,18,44,12.90
2012,03,13,18,45,4.80
2012,03,13,18,46,14.50
2012,03,13,18,48,17.70
2012,03,13,18,49,4.80
2012,03,13,18,50,9.60
2012,03,13,18,51,4.80
2012,03,13,18,52,4.80
2012,03,13,18,53,3.20
2012,03,13,18,54,9.60
2012,03,13,18,55,17.70
2012,03,13,18,56,9.60
2012,03,13,18,57,11.30
2012,03,13,18,58,1.60
2012,03,13,18,59,1.60
2012,03,13,19,00,8.10
2012,03,13,19,01,19.30
2012,03,13,19,02,9.60
2012,03,13,19,03,14.50
2012,03,13,19,04,19.30
2012,03,13,19,05,8.10
2012,03,13,19,06,4.80
2012,03,13,19,07,6.40
2012,03,13,19,08,4.80
2012,03,13,19,09,4.80
2012,03,13,19,10,8.10
2012,03,13,19,11,8.10
2012,03,13,19,12,9.60
2012,03,13,19,13,1.60
2012,03,13,19,14,3.20
2012,03,13,19,15,11.30
2012,03,13,19,16,6.40
2012,03,13,19,17,8.10
2012,03,13,19,18,3.20
2012,03,13,19,19,9.60
2012,03,13,19,20,9.60
2012,03,13,19,21,4.80